Location: Rounton
(54.4000°N, 1.3500°W)
Time: 06:14:54
(UTC+00:00)

A-11 Canister half - Pass Details

Date: 08 December 2021
Orbit: 1516 x 1684 km, 47.2° (Epoch: 21 January)

Event Time Altitude Azimuth Distance (km) Brightness Sun altitude
Rises 07:45:16 0° 246° (WSW) 4,768 11.3 -4.1°
Reaches altitude 10° 07:48:23 10° 242° (WSW) 3,807 10.8 -3.7°
Maximum altitude 07:57:45 55° 168° (SSE) 1,913 9.9 -2.6°
Drops below altitude 10° 08:07:25 10° 95° (E) 3,927 12.2 -1.5°
Sets 08:10:40 0° 91° (E) 4,927 12.6 -1.1°
